Wind_Speed
24 24 25 25 24 24 23 23 22 22 21 20 20 19 19 19 19 20 20 20 20 20 21 21 21 21 21 21 20 20 20 20 20 21 21 21 22 22 22 23 23 24 25 25 25 25 25 25 25 25 24 24 24 24 23 22 21 20 19 20 22 23 23 21 20 20 20 20 21
24 24 23 23 22 21 21 20 19 18 18 18 17 17 17 17 17 18 18 18 18 18 18 18 19 18 18 18 18 18 18 18 18 18 18 19 19 19 19 20 20 21 21 22 22 22 22 23 23 23 23 23 23 22 21 20 19 19 20 22 24 24 23 21 20 21 21 21 21
23 22 21 20 20 19 18 17 17 17 16 16 16 16 16 16 16 16 16 16 17 17 17 17 17 17 17 16 16 16 16 16 16 17 17 17 17 17 17 18 18 18 19 19 20 20 21 21 22 22 22 22 21 20 18 17 17 18 20 23 25 24 23 20 20 21 21 21 20
21 20 19 19 18 17 17 17 16 16 16 16 16 16 16 16 16 16 16 16 16 16 16 16 16 16 16 16 16 16 16 16 16 16 16 16 16 16 17 17 17 17 18 18 19 19 20 20 20 21 20 19 18 16 16 16 17 19 22 24 25 24 22 20 20 20 20 20 18
20 19 19 18 18 17 17 17 17 17 17 16 16 16 16 16 16 16 16 16 16 16 16 16 16 16 15 15 15 16 16 16 16 16 16 16 16 16 16 16 16 16 17 17 18 18 18 18 18 18 17 16 15 15 16 18 20 22 24 24 22 20 18 17 17 17 17 17 15
19 19 18 18 18 18 17 17 17 17 17 17 17 17 17 17 17 16 16 16 16 16 16 16 16 16 16 16 16 16 16 16 16 16 16 16 16 16 16 16 15 16 16 16 16 17 16 16 15 15 15 14 15 17 19 21 22 23 22 20 18 16 15 15 14 15 15 16 15
19 18 18 18 18 18 18 18 18 18 18 18 17 17 17 17 17 17 17 17 17 16 16 16 16 16 16 16 16 16 16 16 16 16 16 16 16 16 15 15 15 15 15 15 15 15 14 14 15 15 16 17 19 21 22 22 21 19 18 18 17 17 16 15 15 15 17 18 17
19 19 19 18 18 18 18 18 18 18 18 18 17 18 17 17 17 17 17 17 17 16 16 16 16 16 16 17 17 17 17 16 16 16 16 16 16 16 15 15 15 15 15 15 14 14 14 15 16 18 19 20 21 21 19 18 17 17 18 19 19 18 17 16 15 16 18 19 17
19 19 19 19 18 18 18 18 18 18 17 17 17 17 17 17 17 17 17 16 16 16 16 16 16 16 17 17 17 17 17 16 16 16 16 16 16 16 16 16 16 16 16 15 15 15 15 16 18 19 19 18 17 17 16 16 16 17 19 20 18 16 15 14 15 16 18 18 17
18 18 18 18 18 18 18 18 18 18 17 17 17 17 17 17 17 17 16 16 16 16 16 16 16 16 16 16 16 16 16 16 16 16 16 16 16 16 16 16 16 16 16 16 16 16 16 17 19 19 18 17 16 16 15 15 16 18 19 18 16 14 13 14 15 17 18 19 18
18 18 18 17 17 17 17 17 17 17 17 17 17 17 17 17 16 16 16 16 16 15 16 16 16 16 16 16 16 16 16 16 16 16 16 16 16 16 16 16 16 16 16 16 17 17 17 18 19 19 19 18 16 15 15 15 16 17 17 18 17 16 16 16 17 18 19 20 20
17 17 17 17 17 17 17 17 17 17 17 17 17 17 17 16 16 16 16 16 16 16 16 16 16 15 15 15 15 15 15 15 15 16 16 16 16 16 16 16 16 16 17 17 17 18 18 19 19 20 19 18 16 15 15 15 16 16 17 18 18 18 18 18 18 19 20 21 21
17 17 17 17 17 17 17 17 17 17 17 17 17 17 17 17 17 17 16 16 16 17 17 16 16 15 15 15 15 15 15 15 15 15 15 15 15 15 15 15 16 16 16 17 18 18 18 19 19 19 18 17 16 15 15 16 16 17 17 18 19 19 19 19 19 20 20 21 21
17 17 17 17 17 17 17 17 18 18 18 18 18 18 18 18 17 17 17 17 17 18 17 17 16 16 16 16 16 15 15 15 15 15 15 15 15 15 15 15 15 16 16 17 17 17 18 18 17 17 17 16 15 16 16 17 18 18 18 18 19 19 19 20 20 21 21 21 21
17 17 17 17 17 18 18 18 18 18 18 18 19 18 18 18 18 18 18 18 18 18 18 18 17 17 17 17 16 16 16 16 16 16 15 16 16 16 16 16 16 16 16 17 17 17 17 17 17 17 16 16 16 17 18 19 19 19 19 20 20 20 21 21 21 22 22 22 22
17 17 17 17 17 18 18 18 19 19 19 19 19 19 19 19 19 19 19 19 19 19 19 19 18 18 18 18 17 17 17 17 17 17 17 17 17 17 17 17 17 17 17 17 17 17 17 18 18 18 18 18 18 19 19 19 20 20 20 21 21 21 22 22 22 21 21 21 21
17 17 17 17 17 18 18 18 19 19 19 19 19 19 19 19 19 19 19 19 19 19 19 19 19 19 19 19 18 18 18 18 18 18 18 19 19 19 19 19 19 19 19 19 19 19 19 19 19 19 19 19 20 20 20 20 21 21 21 21 21 21 21 21 20 20 20 20 20
16 17 17 17 18 18 18 19 19 19 19 19 19 19 19 19 19 19 19 19 19 19 19 19 19 19 19 19 19 19 19 19 19 19 20 20 20 20 20 20 20 20 20 20 20 20 20 21 21 21 21 21 21 21 21 21 21 21 21 21 21 20 20 19 19 19 19 19 19
17 17 17 18 18 18 19 19 19 19 19 19 19 19 19 20 20 20 19 19 20 20 20 20 20 20 20 20 20 20 20 20 20 20 21 21 21 21 21 21 21 21 21 21 21 21 21 21 21 21 21 21 21 21 21 21 21 21 20 20 20 19 19 18 18 18 18 18 18
17 17 18 18 19 19 20 20 20 20 20 20 20 20 20 20 20 20 20 20 20 20 20 20 20 20 21 21 21 21 21 21 21 21 21 21 21 21 21 21 21 21 21 21 21 21 21 21 21 21 20 20 20 20 20 20 19 19 19 19 18 18 17 17 17 17 17 17 17
17 18 18 19 20 21 21 21 21 22 22 22 21 22 22 22 21 21 21 21 21 21 21 21 21 21 21 21 21 21 21 21 21 21 21 21 21 21 21 21 21 21 21 20 20 20 20 20 20 20 19 19 19 19 18 18 18 18 17 17 17 17 17 16 16 16 16 16 15
17 18 19 20 21 22 22 23 23 23 23 23 23 23 23 23 22 22 22 22 22 22 21 21 21 21 21 21 21 21 21 21 20 20 20 20 20 20 20 20 19 19 19 19 19 19 19 19 18 18 18 18 17 17 16 16 16 16 16 16 16 16 16 16 15 15 15 15 14
18 19 20 21 21 22 23 24 24 24 24 24 24 24 24 23 23 23 23 23 22 22 22 22 22 21 21 21 21 21 20 20 19 19 19 19 19 19 18 18 18 18 18 18 18 17 17 17 17 16 16 15 15 15 15 14 15 15 15 15 15 15 15 15 14 14 14 14 13
18 19 20 20 21 22 23 24 25 25 25 25 25 25 24 24 24 23 23 22 22 22 22 21 21 21 21 20 20 19 19 18 18 18 18 18 18 17 17 16 16 16 16 16 15 15 15 15 14 14 14 14 13 13 14 14 14 14 14 15 15 15 14 14 13 13 13 13 12
19 19 19 20 20 21 22 23 24 25 26 26 26 26 25 24 24 23 23 22 22 22 21 21 21 20 20 19 19 18 18 17 17 17 17 17 16 15 15 14 14 14 14 13 13 13 13 13 12 12 12 12 13 13 13 13 13 14 14 14 14 14 13 13 12 12 12 11 11
19 19 19 19 19 20 21 22 23 25 25 26 26 26 25 25 24 23 23 22 22 21 21 20 20 19 19 18 18 17 17 17 16 16 15 15 14 14 13 13 12 12 11 11 11 11 11 11 11 11 12 12 12 12 13 13 13 13 13 13 13 13 12 11 11 11 10 10 9
19 19 19 19 19 19 20 21 22 23 23 24 24 25 25 24 24 23 22 21 21 21 20 20 19 18 18 17 17 17 16 16 15 14 14 13 13 13 12 11 11 10 10 10 9 10 10 10 11 11 11 11 12 12 12 12 12 12 12 12 12 11 10 10 9 9 8 8 7
19 19 19 19 19 19 20 20 20 20 21 21 22 23 23 23 23 22 21 21 20 20 19 19 18 18 17 17 16 16 15 14 13 13 12 12 12 12 11 10 10 9 9 9 9 9 10 10 10 10 11 11 11 11 11 11 11 11 11 10 10 9 9 8 8 7 7 6 6
19 19 19 19 19 19 19 19 19 18 18 18 19 20 21 21 21 21 20 20 19 19 19 18 17 17 16 15 15 14 13 13 12 12 12 11 11 11 10 10 10 9 9 9 9 9 9 10 10 10 10 10 10 10 10 10 10 9 9 9 9 8 8 8 7 7 6 6 5
19 19 19 19 19 19 19 18 18 17 16 16 17 17 18 18 19 19 19 19 18 18 17 17 16 15 14 14 13 13 12 12 12 12 12 11 11 11 10 10 10 9 9 9 9 9 10 10 10 10 10 10 10 10 9 9 9 9 8 8 8 8 7 7 7 6 6 5 5
19 19 19 19 19 18 18 18 17 16 15 15 15 15 16 16 17 17 17 17 17 16 16 15 14 13 13 13 12 12 12 12 12 12 12 11 11 11 10 10 10 10 9 9 9 10 10 10 10 9 9 9 9 9 9 8 8 8 8 7 7 7 6 6 6 6 6 6 6
19 19 19 19 18 17 17 17 17 16 15 14 14 13 14 15 16 16 16 16 15 15 14 13 13 12 12 12 12 12 12 12 12 12 12 11 11 11 11 10 10 10 10 10 10 10 10 9 9 9 9 9 9 8 8 8 7 7 7 6 6 6 6 6 6 6 7 7 8
19 19 18 18 17 17 17 17 17 16 15 14 13 13 13 14 15 15 15 15 14 14 13 12 12 12 12 12 12 12 12 13 12 12 12 11 11 11 11 11 11 11 10 10 10 10 9 9 9 9 9 8 8 8 7 7 6 6 6 6 5 6 6 6 7 7 8 8 8
19 18 18 17 17 17 17 17 17 16 15 13 13 12 13 13 14 14 14 14 14 13 13 12 12 11 12 12 12 12 12 12 12 12 12 11 11 11 11 11 11 11 11 10 10 10 9 9 9 9 8 8 8 7 7 6 6 6 6 6 6 6 7 7 7 8 8 8 8
18 18 17 17 17 17 17 17 17 15 14 13 12 12 12 13 13 14 14 14 14 14 13 13 12 12 12 11 12 12 12 12 12 12 12 11 11 11 11 11 11 11 11 11 10 10 10 9 9 8 8 7 7 7 6 6 6 6 6 6 6 7 7 7 7 7 8 8 8
18 17 17 17 17 18 18 17 16 15 13 12 12 12 12 13 13 14 14 14 14 14 14 13 13 12 12 12 12 12 12 12 12 12 12 12 11 11 11 11 11 11 11 11 10 10 10 9 9 8 8 7 7 6 6 6 6 6 6 6 6 7 7 7 7 7 7 7 7
17 17 17 17 18 18 18 17 16 14 13 12 12 12 13 13 13 14 14 15 15 15 15 14 13 13 12 12 12 12 12 12 12 12 12 12 12 11 11 11 11 11 11 11 11 10 10 9 8 8 7 7 7 7 7 7 6 6 6 6 6 6 6 6 6 6 7 6 6
17 16 17 17 18 19 18 17 16 14 13 13 12 12 13 13 13 14 15 15 16 15 15 14 13 13 12 12 12 12 12 12 13 13 13 13 12 12 11 11 11 11 11 11 10 10 9 9 8 8 7 7 7 7 7 7 6 6 6 6 6 6 6 6 6 6 6 6 6
16 16 17 18 19 19 18 17 15 14 13 13 13 13 13 13 14 15 15 16 16 15 15 14 13 13 13 13 13 13 13 14 14 14 14 14 13 12 12 11 11 11 11 10 10 9 9 8 8 8 7 7 7 7 7 6 6 6 6 6 5 5 5 5 5 5 5 5 5
16 16 17 18 19 19 18 16 15 14 13 13 13 13 13 14 14 15 16 16 16 16 15 14 13 14 14 14 14 15 15 15 15 15 15 14 14 13 12 11 11 11 10 10 9 9 8 8 8 7 7 7 7 7 6 6 6 6 5 5 5 5 4 4 4 4 4 5 5
15 16 18 19 19 18 17 16 14 14 13 13 13 13 14 14 15 15 16 16 16 16 15 15 15 15 16 16 16 16 16 16 16 15 15 14 14 13 13 12 11 11 10 10 9 9 8 8 8 7 7 7 7 6 6 6 5 5 5 4 4 4 3 3 4 4 4 4 5
Wind_Direction
247 249 250 251 252 252 253 253 253 254 254 254 255 255 256 256 256 257 257 257 256 256 256 256 256 256 257 258 258 258 258 258 258 258 258 258 259 260 260 260 260 260 260 259 259 258 258 258 258 259 259 259 260 260 260 260 260 258 255 252 251 249 247 244 243 245 247 249 249
247 248 249 249 249 248 248 248 249 249 250 251 252 253 253 253 254 254 255 255 255 255 255 255 255 255 255 256 256 256 256 256 256 256 256 257 257 258 258 258 258 258 257 256 255 254 254 254 254 255 255 256 256 256 256 256 256 255 254 253 252 250 247 244 244 246 248 249 249
245 245 245 244 243 243 242 242 243 244 246 247 249 250 250 251 252 252 252 253 253 253 253 253 253 253 253 253 253 253 253 253 253 253 253 253 254 254 254 254 254 253 253 252 250 250 250 250 251 252 252 252 252 252 251 252 251 251 252 254 253 252 249 246 247 248 249 249 248
242 241 240 238 238 238 239 241 242 243 245 247 248 249 250 251 252 252 252 252 252 252 252 252 252 251 251 251 250 250 250 250 250 250 250 250 250 250 250 250 250 249 249 248 248 247 247 248 249 249 249 249 249 250 251 251 251 250 251 252 254 254 253 252 252 252 250 248 248
239 238 237 237 237 239 241 243 244 245 246 248 249 250 252 253 253 253 253 253 252 252 252 251 251 250 250 249 249 249 249 249 248 248 247 247 247 247 246 246 246 247 247 247 247 247 247 247 247 247 246 247 249 252 253 253 251 249 250 252 254 257 259 260 261 259 254 250 248
236 237 238 239 240 242 244 245 246 247 248 249 251 253 254 255 255 254 253 253 252 252 251 251 250 249 248 248 248 248 248 248 247 247 246 246 245 245 244 244 244 245 246 247 247 246 246 246 246 246 245 247 249 251 252 251 251 251 253 255 256 258 259 259 260 259 257 252 248
236 237 239 240 242 243 244 245 246 247 248 250 252 253 255 255 255 254 253 252 252 251 250 249 249 248 247 247 248 248 248 248 247 246 245 245 244 244 244 244 243 243 244 245 245 244 244 244 245 245 245 245 246 247 249 251 255 258 261 260 257 254 252 251 252 254 255 254 251
238 239 240 241 243 244 245 246 247 247 249 250 251 253 254 254 254 253 252 251 250 249 249 249 248 247 247 247 247 248 248 247 247 246 245 245 245 245 245 244 244 243 242 242 241 240 240 242 244 245 245 245 247 249 252 255 259 262 262 259 255 251 249 249 250 253 255 255 253
238 240 241 243 244 245 246 247 247 248 249 250 251 252 253 253 252 252 250 249 249 249 249 249 248 248 247 247 248 248 248 248 247 247 246 246 246 247 246 246 245 244 242 241 239 238 238 240 245 248 249 250 251 254 256 257 257 258 258 257 254 251 249 249 252 254 255 256 255
240 241 243 244 244 245 246 247 248 249 249 250 251 251 252 252 251 250 249 248 248 249 249 248 248 247 247 247 247 247 248 248 248 248 247 247 247 247 247 247 247 246 245 243 241 240 240 242 246 251 255 257 258 258 257 254 253 254 256 258 257 258 259 260 260 260 259 259 261
242 243 244 244 245 246 247 247 248 249 249 249 250 250 250 250 249 248 248 248 248 247 247 247 247 247 246 246 247 247 247 247 248 248 248 248 248 248 248 249 249 249 248 246 245 245 245 246 248 252 256 258 259 258 256 253 253 255 257 261 264 268 271 271 268 265 262 261 261
244 244 245 245 245 245 246 246 247 248 248 248 248 248 248 248 247 247 247 247 246 246 246 246 246 246 246 246 246 246 246 247 247 248 249 249 249 249 250 250 250 251 251 251 251 251 251 252 253 254 256 258 259 258 256 256 257 258 260 262 265 268 270 270 268 264 260 258 258
244 245 245 245 245 245 245 245 246 247 247 247 247 247 247 247 246 246 246 246 246 246 246 246 246 246 246 246 246 246 247 247 248 250 251 251 252 252 252 252 252 253 254 255 256 257 257 257 257 257 258 259 259 258 258 258 258 259 258 259 261 263 264 265 263 262 260 260 261
244 245 245 245 244 244 243 244 245 246 246 246 246 246 247 247 246 246 246 246 246 247 247 246 246 246 246 247 247 248 249 250 251 252 253 254 255 255 255 255 255 256 257 258 259 261 261 261 261 261 260 259 256 255 255 255 256 256 257 258 259 261 262 263 264 264 265 266 267
244 244 245 245 244 244 243 244 245 245 245 246 246 247 247 247 247 246 246 246 247 248 248 248 248 248 248 248 250 251 252 253 254 255 256 257 258 258 258 258 258 258 258 259 261 261 262 263 262 262 261 258 255 253 253 254 256 257 259 261 262 263 264 265 265 266 266 266 266
244 245 245 245 245 245 245 245 245 246 246 247 248 248 248 248 248 248 248 248 248 249 250 250 250 250 251 251 252 253 254 256 257 258 259 259 260 260 261 261 261 260 260 260 261 262 262 262 262 262 262 260 259 258 258 258 260 261 262 263 264 265 265 265 265 264 264 263 263
246 247 247 247 247 247 247 247 247 248 248 249 250 250 250 250 250 250 249 249 249 250 251 251 251 252 252 253 254 255 256 257 258 259 260 261 261 262 262 263 263 263 262 262 262 263 263 263 263 263 263 263 263 262 263 263 263 263 264 264 265 265 264 263 263 261 260 259 259
249 249 250 250 250 250 250 250 250 250 251 251 252 252 252 252 251 251 251 250 250 250 250 251 252 253 253 254 255 256 257 257 258 259 260 261 262 263 263 264 264 265 265 265 265 265 264 264 264 264 264 264 264 264 264 264 264 263 263 263 263 263 261 260 259 257 256 255 255
252 253 254 254 254 254 254 253 253 253 253 253 253 253 253 252 252 252 251 250 250 250 250 251 252 253 253 254 255 256 257 258 259 260 261 262 263 264 264 265 265 266 266 266 266 265 265 265 264 264 264 264 264 264 263 262 262 261 260 260 260 259 257 255 254 254 253 252 252
257 258 259 260 259 259 258 257 256 256 255 255 254 253 253 252 252 251 251 250 250 250 251 251 252 253 254 255 256 257 258 259 260 262 263 264 265 265 266 266 266 266 266 265 265 264 264 264 263 263 263 263 262 262 261 260 258 257 257 256 255 253 252 251 251 251 251 251 252
262 264 265 265 265 264 262 261 259 258 256 255 254 253 252 252 251 250 250 250 250 251 252 253 253 254 255 257 258 259 260 262 263 264 265 265 266 266 266 266 265 265 265 264 263 262 262 261 261 261 261 261 261 260 258 257 255 253 252 251 250 249 248 248 248 249 250 251 252
268 269 270 270 269 267 265 263 261 259 257 255 254 253 252 251 250 250 250 250 251 252 253 253 254 255 256 258 259 261 262 263 264 265 265 265 265 265 264 264 264 263 263 262 261 261 260 260 259 259 259 259 258 256 254 252 250 249 248 247 246 246 246 246 247 248 249 250 251
273 274 274 273 271 269 266 264 261 259 257 255 253 252 251 250 250 250 250 251 251 252 253 254 255 256 257 259 260 262 263 264 264 264 263 263 262 262 262 262 261 261 261 261 260 260 259 258 257 256 256 254 253 251 250 248 246 245 244 243 243 243 244 245 245 246 247 248 249
277 279 278 277 274 271 267 264 261 258 256 254 252 251 250 249 249 249 250 251 251 252 253 254 255 257 258 259 260 261 262 262 262 261 261 260 259 259 259 259 259 260 260 259 258 256 255 254 253 252 250 249 248 246 245 243 242 241 240 240 240 241 242 243 244 244 245 245 247
281 282 282 280 277 273 269 265 261 258 256 253 252 250 249 249 249 249 250 250 251 252 253 254 255 257 258 258 259 259 259 259 258 258 257 257 256 255 256 257 259 259 258 256 253 251 249 248 246 245 244 243 242 241 240 239 238 237 237 237 237 238 239 241 241 242 242 243 244
284 284 283 281 278 274 270 266 263 259 256 254 253 251 250 249 249 249 249 250 251 252 253 254 255 256 257 257 257 257 257 256 256 255 254 254 254 254 256 257 258 257 254 251 248 245 243 241 240 239 238 237 237 236 235 235 234 234 234 234 234 235 236 237 237 237 237 238 238
286 285 283 281 278 275 271 268 265 262 259 256 254 252 250 249 249 249 249 250 251 252 252 253 254 255 255 255 255 255 254 254 252 251 250 250 252 255 257 257 255 252 249 245 242 239 237 235 234 234 233 232 231 230 230 230 230 230 230 230 231 231 230 229 228 227 226 228 228
286 285 283 281 278 275 273 271 268 265 262 258 254 251 250 248 248 248 248 249 250 250 251 251 252 252 252 252 252 252 251 249 247 245 245 247 249 252 253 251 248 245 242 239 236 233 232 231 230 229 229 227 226 225 225 224 224 225 225 224 224 223 220 217 215 213 212 214 217
286 284 282 279 276 275 274 273 272 269 264 259 254 250 248 247 246 245 246 247 247 248 248 249 249 249 249 248 248 246 244 242 240 240 241 244 246 247 245 242 238 237 236 233 231 229 227 227 226 226 225 224 222 220 219 217 216 216 215 213 212 210 208 206 205 204 205 208 216
285 282 279 276 274 274 274 275 274 271 266 260 254 249 246 244 242 242 242 243 243 244 244 244 245 245 245 243 241 238 235 234 234 235 237 240 241 240 236 233 231 230 229 228 226 224 224 223 223 222 221 218 216 213 211 208 206 204 202 202 201 200 199 200 201 205 210 220 229
283 280 276 273 271 271 271 273 273 272 268 262 254 248 243 239 238 237 237 237 238 238 238 239 240 239 238 236 233 229 228 229 230 231 233 235 234 232 229 226 224 224 224 223 221 220 220 220 219 217 214 210 207 203 201 198 196 194 193 194 194 197 200 205 211 219 227 237 242
281 278 274 270 268 267 267 269 271 271 268 262 254 246 239 234 232 232 232 232 231 232 232 233 232 231 230 228 226 224 224 225 226 228 229 229 228 226 223 221 219 219 218 218 216 215 214 213 211 207 203 200 196 194 192 191 189 190 192 195 200 206 213 221 230 236 242 247 250
280 276 272 268 264 263 263 266 268 269 266 261 253 243 233 228 227 227 226 225 224 224 224 224 224 223 222 222 221 221 221 222 223 224 224 223 222 220 218 216 214 213 213 212 210 208 205 203 200 196 193 190 187 186 186 187 190 194 200 207 214 222 230 236 241 245 248 250 252
278 274 269 264 260 258 259 262 264 265 263 259 249 238 228 223 222 221 220 217 215 215 216 216 217 217 216 215 215 216 217 219 219 218 218 217 216 214 213 211 209 208 207 205 202 198 195 191 189 186 184 184 184 185 187 192 199 206 213 221 228 233 238 242 245 247 249 250 252
275 270 264 259 255 253 254 257 260 261 260 254 243 231 223 219 217 216 213 211 209 209 209 211 212 211 211 210 210 211 212 213 213 212 211 209 208 206 206 204 203 202 199 196 192 189 186 184 183 183 184 186 188 193 198 204 211 218 224 229 234 238 240 243 245 246 247 249 250
271 265 259 254 250 250 251 253 256 257 255 247 234 223 218 215 213 210 208 206 206 206 207 208 209 208 207 206 206 206 206 205 206 204 203 201 199 198 198 197 196 194 191 188 185 183 182 183 184 186 190 194 199 204 210 216 220 225 229 233 236 239 242 243 245 246 247 248 248
266 259 253 249 247 247 248 251 253 253 249 239 227 218 214 211 208 205 203 203 204 205 207 208 207 206 205 204 203 201 199 199 198 196 194 192 190 189 189 190 190 188 185 183 182 183 184 186 190 194 198 203 208 214 218 222 225 229 232 234 237 239 241 242 244 246 247 249 249
260 253 246 243 243 245 247 249 250 249 244 233 223 217 213 209 205 202 201 202 204 206 207 207 206 203 202 199 197 195 193 191 190 188 186 183 181 182 184 185 185 185 184 184 185 186 189 193 196 201 205 209 214 218 222 225 228 230 232 234 235 236 238 240 243 246 248 251 253
254 246 241 239 240 243 246 248 249 247 239 229 220 215 211 207 204 202 202 203 204 206 207 205 202 198 195 192 190 188 186 185 184 182 180 178 178 179 182 184 186 187 187 187 189 192 195 199 202 207 210 213 216 220 223 224 226 226 227 229 230 232 234 237 242 245 250 256 261
247 239 236 237 239 242 245 248 247 243 236 227 219 213 209 207 205 204 205 205 206 205 204 201 196 192 190 188 185 184 183 182 181 180 179 178 178 180 182 185 189 191 192 193 194 197 200 203 207 211 213 216 217 218 220 221 221 220 220 222 224 227 231 236 243 248 254 261 267
239 234 233 235 238 242 245 246 244 239 232 225 218 214 211 209 208 208 208 208 206 202 198 194 191 189 187 184 183 182 182 181 181 180 180 180 180 181 183 187 191 194 196 197 198 200 203 206 209 212 214 215 215 215 215 215 212 210 210 214 221 227 235 244 253 258 263 266 270
Height
1528 1528 1528 1529 1529 1529 1530 1530 1530 1530 1531 1531 1531 1531 1531 1531 1531 1531 1531 1531 1531 1531 1531 1531 1531 1531 1531 1531 1532 1532 1532 1532 1532 1532 1532 1532 1532 1532 1532 1532 1532 1532 1532 1532 1532 1532 1532 1532 1532 1532 1533 1533 1533 1533 1534 1534 1534 1534 1534 1534 1535 1535 1535 1534 1535 1535 1535 1535 1536
1526 1527 1527 1527 1528 1528 1528 1528 1528 1529 1529 1529 1529 1529 1529 1529 1529 1529 1529 1529 1529 1530 1530 1530 1530 1530 1530 1530 1530 1530 1530 1530 1530 1530 1530 1530 1530 1530 1530 1530 1530 1530 1530 1530 1530 1530 1530 1530 1531 1531 1531 1531 1532 1532 1532 1532 1533 1533 1533 1533 1533 1533 1533 1533 1533 1533 1534 1534 1534
1524 1525 1525 1526 1526 1526 1527 1527 1527 1527 1527 1528 1528 1528 1528 1528 1528 1528 1528 1528 1528 1528 1528 1528 1528 1528 1528 1528 1528 1528 1528 1528 1528 1528 1528 1529 1528 1528 1528 1528 1528 1528 1528 1528 1528 1528 1529 1529 1529 1529 1529 1530 1530 1530 1531 1531 1531 1531 1532 1532 1532 1532 1531 1532 1532 1532 1532 1533 1533
1523 1523 1524 1524 1524 1525 1525 1525 1525 1526 1526 1526 1526 1526 1526 1526 1527 1527 1527 1527 1527 1527 1527 1527 1527 1527 1527 1527 1527 1527 1527 1527 1527 1527 1527 1527 1527 1527 1527 1527 1527 1527 1527 1527 1527 1527 1527 1528 1528 1528 1528 1528 1529 1529 1529 1529 1530 1530 1530 1530 1530 1530 1530 1530 1531 1531 1531 1531 1531
1521 1522 1522 1523 1523 1523 1523 1523 1524 1524 1524 1524 1525 1525 1525 1525 1525 1525 1525 1525 1525 1525 1525 1526 1526 1526 1526 1526 1526 1526 1526 1526 1526 1526 1526 1526 1526 1526 1526 1526 1526 1526 1526 1526 1526 1526 1526 1526 1526 1527 1527 1527 1527 1528 1528 1528 1528 1528 1528 1528 1528 1528 1529 1529 1529 1529 1529 1529 1530
1520 1520 1521 1521 1521 1522 1522 1522 1522 1523 1523 1523 1523 1523 1523 1523 1523 1523 1524 1524 1524 1524 1524 1524 1524 1524 1524 1524 1524 1524 1524 1524 1524 1524 1524 1524 1525 1525 1525 1525 1525 1525 1525 1525 1525 1525 1525 1525 1525 1526 1526 1526 1526 1527 1527 1527 1527 1527 1527 1527 1527 1527 1528 1528 1528 1528 1529 1528 1528
1518 1519 1519 1519 1520 1520 1520 1521 1521 1521 1521 1521 1522 1522 1522 1522 1522 1522 1522 1522 1522 1523 1523 1523 1523 1523 1523 1523 1523 1523 1523 1523 1523 1523 1523 1523 1523 1523 1523 1523 1524 1524 1524 1524 1524 1524 1524 1524 1524 1525 1525 1525 1525 1526 1526 1526 1525 1525 1525 1526 1526 1526 1526 1527 1527 1527 1528 1528 1527
1517 1517 1518 1518 1518 1519 1519 1519 1519 1519 1520 1520 1520 1520 1520 1520 1521 1521 1521 1521 1521 1521 1521 1521 1521 1521 1521 1521 1521 1521 1522 1522 1522 1522 1522 1522 1522 1523 1523 1523 1523 1523 1523 1523 1523 1523 1523 1523 1524 1524 1524 1524 1524 1524 1524 1524 1524 1524 1525 1525 1525 1525 1525 1525 1526 1526 1526 1526 1526
1516 1516 1516 1517 1517 1517 1518 1518 1518 1518 1518 1518 1518 1518 1519 1519 1519 1519 1519 1519 1519 1520 1520 1520 1520 1520 1520 1520 1520 1520 1520 1520 1521 1521 1521 1521 1521 1521 1521 1522 1522 1522 1522 1522 1522 1522 1522 1523 1523 1523 1522 1522 1522 1522 1523 1523 1523 1523 1523 1523 1523 1523 1524 1524 1524 1524 1525 1525 1525
1514 1515 1515 1515 1515 1516 1516 1516 1516 1516 1517 1517 1517 1517 1517 1518 1518 1518 1518 1518 1518 1518 1518 1518 1518 1518 1519 1519 1519 1519 1519 1519 1519 1519 1520 1520 1520 1520 1520 1520 1521 1521 1521 1521 1521 1521 1521 1521 1521 1521 1521 1521 1521 1521 1522 1522 1522 1522 1522 1522 1522 1522 1523 1523 1523 1523 1523 1523 1524
1513 1513 1513 1514 1514 1514 1514 1514 1514 1515 1515 1515 1515 1515 1516 1516 1516 1516 1517 1517 1517 1517 1517 1517 1517 1517 1518 1518 1518 1518 1518 1518 1518 1518 1518 1518 1519 1519 1519 1519 1519 1520 1520 1520 1520 1520 1520 1520 1520 1520 1520 1520 1520 1520 1521 1521 1521 1521 1521 1521 1521 1521 1522 1522 1522 1522 1522 1523 1523
1512 1512 1512 1512 1513 1513 1513 1513 1513 1513 1513 1513 1514 1514 1514 1514 1515 1515 1515 1516 1516 1516 1516 1516 1516 1516 1516 1516 1516 1517 1517 1517 1517 1517 1517 1517 1518 1518 1518 1518 1518 1518 1518 1519 1519 1519 1519 1519 1519 1519 1519 1519 1519 1519 1519 1520 1520 1520 1520 1520 1520 1520 1520 1521 1521 1521 1521 1521 1521
1510 1511 1511 1511 1511 1511 1511 1511 1512 1512 1512 1512 1513 1513 1513 1513 1513 1514 1514 1514 1514 1514 1514 1515 1515 1515 1515 1515 1515 1515 1516 1516 1516 1516 1516 1516 1517 1517 1517 1517 1517 1517 1518 1518 1518 1518 1518 1518 1518 1518 1518 1518 1518 1518 1518 1518 1518 1518 1519 1519 1519 1519 1519 1519 1520 1520 1520 1520 1520
1509 1509 1509 1509 1510 1510 1510 1510 1510 1510 1511 1511 1511 1512 1512 1512 1512 1513 1513 1513 1513 1513 1513 1513 1513 1514 1514 1514 1514 1514 1515 1515 1515 1515 1515 1515 1515 1516 1516 1516 1516 1516 1516 1516 1517 1517 1516 1516 1516 1516 1517 1517 1517 1517 1517 1517 1517 1517 1518 1518 1518 1518 1518 1518 1518 1518 1518 1518 1518
1508 1508 1508 1508 1508 1508 1508 1509 1509 1509 1509 1510 1510 1510 1511 1511 1511 1511 1512 1512 1512 1512 1512 1512 1512 1513 1513 1513 1513 1513 1513 1514 1514 1514 1514 1514 1514 1514 1515 1515 1515 1515 1515 1515 1515 1515 1515 1515 1515 1515 1515 1515 1515 1516 1516 1516 1516 1516 1516 1516 1516 1516 1517 1517 1517 1517 1517 1517 1517
1506 1506 1507 1507 1507 1507 1507 1508 1508 1508 1508 1508 1508 1509 1509 1509 1510 1510 1510 1510 1510 1510 1511 1511 1511 1511 1512 1512 1512 1512 1512 1513 1513 1513 1513 1513 1513 1513 1513 1513 1514 1514 1514 1514 1514 1514 1514 1514 1514 1514 1514 1514 1514 1514 1514 1514 1515 1515 1515 1515 1515 1515 1515 1515 1515 1515 1515 1515 1515
1505 1505 1505 1505 1506 1506 1506 1506 1506 1507 1507 1507 1507 1508 1508 1508 1508 1509 1509 1509 1509 1509 1509 1509 1510 1510 1510 1510 1511 1511 1511 1511 1511 1511 1512 1512 1512 1512 1512 1512 1512 1512 1513 1513 1513 1513 1513 1513 1513 1513 1513 1513 1513 1513 1513 1513 1513 1513 1513 1513 1513 1513 1513 1513 1513 1513 1513 1513 1513
1504 1504 1504 1504 1504 1505 1505 1505 1505 1505 1506 1506 1506 1506 1507 1507 1507 1507 1508 1508 1508 1508 1508 1508 1508 1508 1509 1509 1509 1509 1509 1510 1510 1510 1510 1510 1510 1510 1511 1511 1511 1511 1511 1511 1511 1511 1511 1511 1511 1511 1511 1511 1511 1511 1511 1511 1511 1511 1511 1511 1511 1511 1512 1512 1512 1512 1512 1512 1512
1503 1503 1503 1503 1503 1503 1504 1504 1504 1504 1504 1505 1505 1505 1505 1505 1506 1506 1506 1506 1506 1506 1507 1507 1507 1507 1508 1508 1508 1508 1508 1508 1508 1508 1508 1508 1509 1509 1509 1509 1509 1509 1509 1509 1509 1509 1509 1509 1509 1509 1509 1509 1509 1509 1509 1509 1509 1509 1509 1510 1510 1510 1510 1510 1510 1510 1510 1511 1511
1501 1502 1502 1502 1502 1502 1503 1503 1503 1503 1503 1503 1503 1504 1504 1504 1504 1504 1504 1504 1505 1505 1505 1505 1505 1506 1506 1506 1506 1506 1507 1507 1507 1507 1507 1507 1507 1507 1507 1507 1507 1507 1508 1508 1508 1508 1508 1508 1508 1508 1508 1508 1508 1508 1508 1508 1508 1508 1508 1508 1508 1508 1508 1509 1509 1509 1509 1509 1510
1500 1500 1501 1501 1501 1501 1501 1501 1501 1501 1502 1502 1502 1502 1502 1503 1503 1503 1503 1503 1503 1503 1504 1504 1504 1504 1504 1504 1505 1505 1505 1505 1505 1505 1505 1505 1505 1506 1506 1506 1506 1506 1506 1506 1506 1506 1506 1506 1506 1506 1506 1506 1506 1506 1506 1506 1506 1506 1507 1507 1507 1507 1507 1508 1508 1508 1508 1508 1509
1499 1499 1499 1499 1499 1499 1499 1499 1499 1500 1500 1500 1500 1500 1500 1501 1501 1501 1501 1501 1502 1502 1502 1502 1502 1503 1503 1503 1503 1503 1503 1503 1504 1504 1504 1504 1504 1504 1504 1504 1504 1504 1504 1504 1504 1504 1504 1504 1504 1504 1504 1504 1504 1504 1505 1505 1505 1505 1505 1506 1506 1506 1506 1507 1507 1507 1507 1508 1508
1497 1497 1497 1497 1497 1498 1498 1498 1498 1498 1498 1498 1498 1498 1498 1499 1499 1499 1499 1500 1500 1500 1500 1500 1501 1501 1501 1501 1502 1502 1502 1502 1502 1502 1502 1502 1502 1502 1502 1502 1502 1502 1502 1502 1502 1502 1502 1502 1503 1503 1503 1503 1503 1503 1503 1504 1504 1504 1504 1505 1505 1505 1505 1506 1506 1506 1506 1507 1507
1496 1496 1496 1495 1495 1495 1495 1495 1496 1496 1496 1496 1496 1496 1496 1497 1497 1497 1498 1498 1498 1498 1499 1499 1499 1499 1499 1500 1500 1500 1500 1500 1500 1500 1500 1501 1501 1501 1501 1501 1501 1501 1501 1501 1501 1501 1501 1501 1501 1501 1502 1502 1502 1502 1503 1503 1503 1503 1503 1504 1504 1504 1504 1505 1505 1505 1506 1506 1506
1494 1494 1494 1494 1493 1493 1493 1493 1493 1493 1493 1493 1493 1494 1494 1495 1495 1495 1496 1496 1497 1497 1497 1497 1498 1498 1498 1498 1498 1498 1499 1499 1499 1499 1499 1499 1499 1499 1499 1499 1499 1499 1499 1499 1499 1499 1499 1500 1500 1500 1500 1501 1501 1501 1502 1502 1502 1502 1503 1503 1503 1503 1504 1504 1504 1504 1505 1505 1505
1492 1492 1492 1492 1492 1491 1491 1491 1491 1491 1491 1491 1491 1492 1492 1493 1493 1493 1494 1494 1495 1495 1495 1495 1496 1496 1496 1497 1497 1497 1497 1497 1497 1497 1498 1498 1498 1498 1498 1498 1498 1498 1498 1498 1498 1498 1498 1498 1499 1499 1499 1500 1500 1500 1501 1501 1501 1502 1502 1502 1503 1503 1503 1503 1503 1504 1504 1504 1504
1491 1490 1490 1490 1490 1489 1489 1489 1489 1489 1489 1489 1489 1490 1490 1491 1491 1492 1492 1493 1493 1493 1493 1494 1494 1494 1495 1495 1495 1495 1495 1495 1496 1496 1496 1496 1496 1496 1497 1497 1497 1497 1497 1497 1497 1497 1498 1498 1498 1498 1499 1499 1499 1500 1500 1500 1501 1501 1501 1502 1502 1502 1503 1503 1503 1503 1503 1503 1503
1489 1489 1488 1488 1488 1488 1487 1487 1487 1487 1487 1487 1487 1488 1488 1488 1489 1490 1490 1491 1491 1491 1492 1492 1492 1493 1493 1493 1493 1493 1494 1494 1494 1495 1495 1495 1495 1495 1495 1496 1496 1496 1496 1496 1496 1497 1497 1497 1498 1498 1498 1498 1498 1499 1499 1500 1500 1500 1501 1501 1501 1502 1502 1502 1502 1503 1503 1503 1503
1487 1487 1487 1486 1486 1486 1485 1485 1485 1485 1485 1485 1485 1486 1486 1487 1487 1488 1488 1489 1489 1490 1490 1490 1491 1491 1491 1492 1492 1492 1493 1493 1493 1493 1494 1494 1494 1494 1494 1494 1495 1495 1495 1495 1496 1496 1496 1497 1497 1497 1498 1498 1498 1498 1499 1499 1499 1500 1500 1500 1501 1501 1501 1502 1502 1502 1502 1503 1503
1486 1485 1485 1485 1484 1484 1484 1483 1483 1483 1483 1483 1484 1484 1484 1485 1486 1486 1487 1487 1488 1488 1488 1489 1489 1490 1490 1490 1491 1491 1491 1492 1492 1493 1493 1493 1493 1493 1493 1494 1494 1494 1494 1495 1495 1495 1496 1496 1496 1497 1497 1497 1498 1498 1498 1499 1499 1499 1500 1500 1500 1501 1501 1501 1501 1502 1502 1502 1503
1484 1484 1483 1483 1483 1483 1483 1482 1482 1482 1482 1482 1483 1483 1483 1483 1484 1484 1485 1486 1486 1487 1487 1488 1488 1488 1489 1489 1489 1490 1490 1491 1491 1491 1492 1492 1492 1493 1493 1493 1493 1494 1494 1494 1495 1495 1495 1496 1496 1496 1497 1497 1497 1498 1498 1498 1499 1499 1499 1500 1500 1500 1501 1501 1501 1501 1502 1502 1502
1482 1482 1482 1481 1481 1481 1481 1481 1481 1481 1481 1481 1481 1481 1482 1482 1483 1483 1484 1484 1485 1485 1486 1487 1487 1487 1488 1488 1488 1489 1489 1490 1490 1490 1491 1491 1492 1492 1492 1493 1493 1493 1493 1494 1494 1494 1495 1495 1496 1496 1496 1497 1497 1497 1498 1498 1498 1499 1499 1499 1500 1500 1500 1500 1501 1501 1501 1502 1502
1481 1480 1480 1480 1480 1480 1480 1480 1480 1480 1480 1480 1480 1480 1480 1481 1481 1482 1483 1483 1484 1484 1485 1485 1486 1486 1487 1487 1488 1488 1488 1489 1489 1490 1490 1490 1491 1491 1492 1492 1492 1493 1493 1493 1494 1494 1494 1495 1495 1496 1496 1496 1497 1497 1498 1498 1498 1498 1499 1499 1499 1500 1500 1500 1500 1501 1501 1501 1501
1479 1478 1478 1478 1478 1478 1478 1478 1478 1479 1479 1479 1479 1479 1479 1480 1480 1481 1482 1482 1483 1483 1484 1485 1485 1485 1486 1486 1487 1487 1488 1488 1488 1489 1489 1490 1490 1491 1491 1492 1492 1492 1493 1493 1493 1494 1494 1495 1495 1495 1496 1496 1497 1497 1497 1498 1498 1498 1498 1499 1499 1499 1499 1500 1500 1500 1500 1500 1501
1477 1477 1477 1477 1477 1477 1478 1478 1478 1478 1478 1478 1478 1478 1478 1479 1479 1480 1481 1481 1482 1483 1483 1484 1484 1485 1485 1486 1486 1487 1487 1487 1488 1488 1489 1489 1490 1490 1491 1491 1492 1492 1493 1493 1493 1494 1494 1494 1495 1495 1496 1496 1496 1497 1497 1497 1498 1498 1498 1498 1498 1499 1499 1499 1499 1499 1500 1500 1500
1476 1476 1476 1476 1476 1476 1476 1476 1477 1477 1477 1477 1477 1477 1478 1478 1479 1479 1480 1481 1481 1482 1483 1483 1483 1484 1484 1485 1485 1486 1486 1487 1488 1488 1488 1489 1489 1490 1490 1491 1491 1492 1492 1493 1493 1493 1494 1494 1495 1495 1495 1496 1496 1496 1497 1497 1497 1498 1498 1498 1498 1498 1498 1498 1499 1499 1499 1499 1499
1474 1474 1474 1475 1475 1475 1475 1475 1476 1476 1476 1476 1477 1477 1477 1478 1478 1479 1479 1480 1481 1481 1482 1483 1483 1483 1484 1484 1485 1485 1486 1487 1487 1488 1488 1488 1489 1489 1490 1491 1491 1492 1492 1493 1493 1493 1493 1494 1494 1495 1495 1495 1496 1496 1496 1497 1497 1497 1497 1497 1498 1498 1498 1498 1498 1498 1498 1498 1498
1473 1473 1473 1473 1473 1474 1474 1474 1475 1475 1475 1476 1476 1476 1477 1477 1478 1478 1479 1479 1480 1481 1481 1482 1482 1483 1483 1484 1484 1485 1486 1486 1487 1488 1488 1488 1489 1489 1490 1490 1491 1491 1492 1492 1493 1493 1493 1494 1494 1494 1495 1495 1495 1496 1496 1496 1496 1496 1497 1497 1497 1497 1497 1497 1498 1498 1498 1498 1498
1472 1472 1472 1472 1473 1473 1473 1473 1474 1474 1475 1475 1475 1476 1476 1477 1477 1478 1478 1479 1480 1480 1481 1481 1482 1483 1483 1484 1484 1485 1485 1486 1487 1487 1488 1488 1489 1489 1490 1490 1491 1491 1492 1492 1492 1493 1493 1493 1493 1494 1494 1494 1495 1495 1495 1496 1496 1496 1496 1496 1497 1497 1497 1497 1497 1497 1497 1497 1497
1471 1471 1471 1471 1472 1472 1472 1473 1473 1474 1474 1474 1474 1475 1476 1476 1477 1477 1478 1478 1479 1480 1480 1481 1482 1482 1483 1483 1484 1485 1485 1486 1486 1487 1488 1488 1488 1489 1490 1490 1491 1491 1491 1492 1492 1492 1493 1493 1493 1493 1494 1494 1494 1495 1495 1495 1495 1496 1496 1496 1496 1496 1496 1497 1497 1497 1497 1497 1497
1469 1470 1470 1470 1471 1471 1472 1472 1473 1473 1473 1474 1474 1474 1475 1476 1476 1477 1477 1478 1478 1479 1480 1480 1481 1482 1483 1483 1484 1484 1485 1486 1486 1487 1488 1488 1488 1489 1489 1490 1490 1491 1491 1491 1492 1492 1492 1493 1493 1493 1493 1494 1494 1494 1495 1495 1495 1495 1495 1495 1496 1496 1496 1496 1496 1496 1496 1496 1496